Weather History for Key West, FL

Change the Weather History Date:

Monday, June 4, 2012

  Actual Average Record
Temperature  
Mean Temperature 82 °F 82 °F  
Max Temperature 86 °F 87 °F 91 °F (1981)
Min Temperature 77 °F 78 °F 69 °F (1933)
Degree Days  
Heating Degree Days 0 0  
Month to date heating degree days 0 0  
Since 1 June heating degree days 0 0  
Since 1 July heating degree days 28 73  
Cooling Degree Days 17 18  
Month to date cooling degree days 63 69  
Year to date cooling degree days 1753 1499  
Since 1 June cooling degree days 63 69  
Growing Degree Days 32 (Base 50)    
Moisture  
Dew Point 75 °F    
Average Humidity 78    
Maximum Humidity 91    
Minimum Humidity 65    
Precipitation  
Precipitation 0.00 in 0.14 in 3.91 in (1982)
Month to date precipitation 0.97 0.56  
Year to date precipitation 18.07 11.19  
Snow  
Snow 0.00 in - - ()
Month to date snowfall 0.0  
Since 1 June snowfall 0.0  
Since 1 July snowfall 0.0  
Snow Depth 0.00 in    
Sea Level Pressure  
Sea Level Pressure 29.97 in    
Wind  
Wind Speed 4 mph (WSW)    
Max Wind Speed 12 mph    
Max Gust Speed 25 mph    
Visibility 10 miles    
Events      
T = Trace of Precipitation, MM = Missing Value Source: NWS Daily Summary

Daily Weather History Graph

Daily Weather History Graph

Search for Another Location

Airport:

Trip Planner

Search our weather history database for the weather conditions in past years. The results will help you decide how hot, cold, wet, or windy it might be!

Date:

Astronomy

Jun. 04, 2012 Rise Set
Actual Time 6:37 AM EDT 8:13 PM EDT
Civil Twilight 6:12 AM EDT 8:38 PM EDT
Nautical Twilight 5:41 AM EDT 9:09 PM EDT
Astronomical Twilight 5:10 AM EDT 9:41 PM EDT
Moon 8:42 PM EDT (6/4) 6:42 AM EDT (6/4)
Length of Visible Light 14h 26m
Length of Day
13h 35m
Full, 100% of the Moon is Illuminated
Jun 4
Full
Jun 11
Last Quarter
Jun 19
New
Jun 26
First Quarter
Jul 3
Full

Hourly Weather History & Observations

Time (EDT) Temp. Heat Index Dew Point Humidity Pressure Visibility Wind Dir Wind Speed Gust Speed Precip Events Conditions
12:53 AM 80.1 °F 85.1 °F 75.0 °F 85% 30.01 in 10.0 mi NNE 3.5 mph - N/A   Clear
1:53 AM 80.1 °F 84.5 °F 73.9 °F 81% 29.99 in 10.0 mi Calm Calm - N/A   Clear
2:53 AM 79.0 °F - 73.9 °F 84% 29.97 in 10.0 mi ENE 3.5 mph - N/A   Clear
3:53 AM 78.1 °F - 73.9 °F 87% 29.96 in 10.0 mi Calm Calm - N/A   Clear
4:53 AM 78.1 °F - 75.0 °F 90% 29.96 in 10.0 mi Calm Calm - N/A   Clear
5:53 AM 77.0 °F - 73.4 °F 89% 29.97 in 10.0 mi Calm Calm - N/A   Clear
6:53 AM 79.0 °F - 75.9 °F 90% 29.98 in 10.0 mi Calm Calm - N/A   Clear
7:53 AM 80.6 °F 86.2 °F 75.2 °F 84% 30.00 in 10.0 mi Calm Calm - N/A   Clear
8:53 AM 82.0 °F 89.4 °F 75.9 °F 82% 30.02 in 10.0 mi South 4.6 mph - N/A   Clear
9:53 AM 82.9 °F 91.8 °F 77.0 °F 82% 30.01 in 10.0 mi SSW 6.9 mph - N/A   Partly Cloudy
10:53 AM 84.0 °F 91.9 °F 75.0 °F 74% 30.01 in 10.0 mi SSW 6.9 mph - N/A   Partly Cloudy
11:53 AM 84.0 °F 92.6 °F 75.9 °F 76% 30.01 in 10.0 mi SSW 6.9 mph - N/A   Clear
12:53 PM 84.0 °F 93.7 °F 77.0 °F 79% 30.00 in 10.0 mi SSW 8.1 mph - N/A   Partly Cloudy
1:53 PM 84.9 °F 93.3 °F 75.0 °F 72% 29.99 in 10.0 mi SW 6.9 mph - N/A   Clear
2:53 PM 84.9 °F 93.3 °F 75.0 °F 72% 29.98 in 10.0 mi SW 6.9 mph - N/A   Clear
3:53 PM 84.9 °F 94.1 °F 75.9 °F 74% 29.95 in 10.0 mi SW 8.1 mph - N/A   Clear
4:53 PM 84.0 °F 92.6 °F 75.9 °F 76% 29.94 in 10.0 mi SW 8.1 mph - N/A   Scattered Clouds
5:16 PM 84.2 °F 92.3 °F 75.2 °F 74% 29.94 in 10.0 mi SW 6.9 mph - N/A   Mostly Cloudy
5:32 PM 84.2 °F 92.3 °F 75.2 °F 74% 29.94 in 10.0 mi WSW 6.9 mph - N/A   Scattered Clouds
5:53 PM 86.0 °F 93.0 °F 73.0 °F 65% 29.94 in 10.0 mi WNW 9.2 mph - N/A   Partly Cloudy
6:53 PM 84.9 °F 94.1 °F 75.9 °F 74% 29.94 in 10.0 mi NNW 5.8 mph - N/A   Partly Cloudy
7:53 PM 84.0 °F 91.2 °F 73.9 °F 72% 29.94 in 10.0 mi NW 5.8 mph - N/A   Clear
8:53 PM 84.0 °F 91.2 °F 73.9 °F 72% 29.94 in 10.0 mi NW 4.6 mph - N/A   Clear
9:53 PM 82.9 °F 90.2 °F 75.0 °F 77% 29.94 in 10.0 mi Calm Calm - N/A   Clear
10:53 PM 82.9 °F 90.2 °F 75.0 °F 77% 29.94 in 10.0 mi Calm Calm - N/A   Clear
11:53 PM 82.9 °F 89.4 °F 73.9 °F 74% 29.94 in 10.0 mi Calm Calm - N/A   Clear